EW2563 Weather Reports


time (UTC)temp
C
wind
direction
speed
KPH
gust
KPH
rain 1hr
cm
rain 24hr
cm
rain mn
cm
humidity
%
barometer
mb
20260510021542 10 235 0.0 0.0 0.00 0.86 0.84 92 1008.5
20260510020046 11 235 0.0 0.0 0.00 0.86 0.84 91 1008.6
20260510014544 11 117 0.0 0.0 0.00 0.86 0.84 90 1008.5
20260510013057 12 117 0.0 3.2 0.00 0.86 0.84 89 1008.1
20260510011601 12 194 0.0 8.0 0.00 0.86 0.84 89 1008.0
20260510010001 12 173 0.0 1.6 0.00 0.86 0.84 88 1007.9
20260510004607 12 165 1.6 6.4 0.00 0.86 0.84 88 1007.7
20260510003003 13 213 1.6 9.7 0.00 0.86 0.84 88 1007.4
20260510001506 13 168 3.2 11.3 0.00 0.86 0.84 88 1007.4
20260510000017 13 176 1.6 9.7 0.00 0.86 0.84 88 1007.1
20260509234519 13 184 1.6 8.0 0.00 0.86 0.84 87 1006.8
20260509233024 13 165 1.6 8.0 0.00 0.86 0.84 87 1006.8
20260509231533 14 172 4.8 14.5 0.00 0.86 0.84 86 1006.8
20260509230047 14 140 3.2 9.7 0.00 0.86 0.84 85 1006.7
20260509224549 15 186 3.2 11.3 0.00 0.94 0.84 84 1006.8
20260509223059 15 170 1.6 6.4 0.00 0.94 0.84 84 1006.9
20260509221554 15 108 1.6 6.4 0.00 0.94 0.84 83 1006.8
20260509220058 15 136 3.2 12.9 0.00 0.94 0.84 82 1006.9
20260509214557 15 160 3.2 9.7 0.00 0.94 0.84 84 1006.9
20260509213102 14 116 1.6 11.3 0.00 0.94 0.84 86 1007.3
20260509211504 14 186 3.2 9.7 0.00 0.94 0.84 86 1007.4
20260509210016 15 94 1.6 11.3 0.00 0.94 0.84 89 1007.3
20260509204511 13 103 0.0 4.8 0.00 0.94 0.84 92 1007.5
20260509203018 13 106 1.6 6.4 0.03 0.94 0.84 92 1007.5
20260509201526 13 152 1.6 8.0 0.05 0.94 0.84 93 1007.6
20260509200038 12 156 0.0 9.7 0.05 0.94 0.84 94 1008.0
20260509194539 12 147 3.2 8.0 0.05 0.94 0.84 94 1008.1
20260509193059 12 171 3.2 9.7 0.05 0.91 0.81 93 1008.3
20260509191545 12 125 3.2 11.3 0.05 0.89 0.79 94 1008.2
20260509184609 12 176 3.2 9.7 0.05 0.91 0.76 94 1008.4
20260509183002 11 160 1.6 8.0 0.10 0.91 0.76 94 1008.5
20260509181515 11 255 1.6 8.0 0.10 0.89 0.71 94 1008.6
20260509180019 11 193 0.0 4.8 0.15 0.89 0.71 94 1008.6
20260509174522 11 138 0.0 6.4 0.18 0.89 0.71 94 1008.6
20260509173025 11 155 3.2 8.0 0.18 0.84 0.66 95 1008.6
20260509171539 11 108 1.6 8.0 0.18 0.81 0.64 95 1008.6
20260509170041 11 176 1.6 8.0 0.13 0.76 0.58 95 1008.6
20260509164545 11 167 0.0 4.8 0.10 0.71 0.53 95 1008.6
20260509163048 11 141 1.6 9.7 0.08 0.69 0.51 95 1008.7
20260509161552 11 168 0.0 4.8 0.03 0.64 0.46 95 1008.8
20260509160052 11 185 1.6 6.4 0.05 0.64 0.46 95 1008.8
20260509154552 11 134 0.0 4.8 0.08 0.61 0.43 95 1008.9
20260509153056 10 138 1.6 6.4 0.10 0.61 0.43 95 1009.0
20260509151510 10 174 1.6 4.8 0.15 0.61 0.43 95 1009.2
20260509150023 10 113 0.0 3.2 0.18 0.58 0.41 95 1009.3
20260509144630 10 98 0.0 3.2 0.15 0.53 0.36 95 1009.3
20260509143050 10 116 0.0 0.0 0.13 0.51 0.33 96 1009.3
20260509141547 10 107 0.0 1.6 0.08 0.46 0.28 96 1009.4
20260509140048 10 105 0.0 0.0 0.05 0.41 0.23 96 1009.5
20260509134552 10 103 0.0 0.0 0.03 0.38 0.20 96 1009.6
20260509133055 10 125 0.0 0.0 0.03 0.38 0.20 96 1009.6
20260509131557 10 125 0.0 0.0 0.03 0.38 0.20 96 1009.6
20260509130005 10 227 0.0 0.0 0.00 0.36 0.18 96 1009.7
20260509124512 10 244 0.0 0.0 0.03 0.36 0.18 96 1009.7
20260509123013 9 248 0.0 0.0 0.03 0.36 0.18 96 1009.7
20260509121521 9 248 0.0 0.0 0.03 0.36 0.18 96 1009.7
20260509120021 9 248 0.0 0.0 0.03 0.36 0.18 96 1009.6
20260509114529 9 1 0.0 0.0 0.00 0.33 0.15 96 1009.6
20260509113042 8 1 0.0 0.0 0.00 0.33 0.15 96 1009.7
20260509111543 8 1 0.0 0.0 0.00 0.33 0.15 96 1009.6
20260509110047 8 49 0.0 6.4 0.00 0.33 0.15 96 1009.7
20260509104549 8 272 1.6 4.8 0.00 0.33 0.15 96 1009.8
20260509103052 8 274 0.0 0.0 0.00 0.33 0.15 96 1009.7
20260509101558 8 274 0.0 0.0 0.00 0.33 0.15 96 1009.5
20260509100106 8 274 0.0 0.0 0.00 0.33 0.15 95 1009.6
20260509094519 8 274 0.0 0.0 0.03 0.33 0.15 95 1009.8
20260509093031 8 274 0.0 1.6 0.03 0.33 0.15 95 1009.8
20260509091543 8 274 0.0 0.0 0.03 0.33 0.15 95 1010.0
20260509090047 8 274 0.0 0.0 0.03 0.33 0.15 95 1009.9
20260509084553 8 289 0.0 1.6 0.00 0.30 0.13 95 1010.1
20260509083051 8 21 0.0 1.6 0.00 0.30 0.13 95 1010.0
20260509081555 8 21 0.0 1.6 0.00 0.30 0.13 95 1010.0
20260509080101 8 13 0.0 3.2 0.05 0.30 0.13 95 1010.0
20260509074509 8 66 1.6 4.8 0.08 0.30 0.13 95 1010.1
20260509073023 8 25 0.0 0.0 0.08 0.30 0.13 95 1010.3
20260509071526 8 25 0.0 1.6 0.10 0.30 0.13 95 1010.6
20260509070030 9 25 0.0 1.6 0.08 0.25 0.08 95 1010.6
20260509064531 9 25 0.0 3.2 0.05 0.23 0.05 95 1010.9
20260509063041 9 113 0.0 1.6 0.05 0.23 0.05 95 1010.7
20260509061548 9 30 0.0 0.0 0.03 0.20 0.03 95 1011.0
20260509060057 9 30 0.0 0.0 0.00 0.18 0.00 95 1011.1
20260509054606 9 30 0.0 1.6 0.00 0.18 0.00 95 1011.2
20260509053106 9 30 0.0 3.2 0.00 0.18 0.00 95 1011.3
20260509051557 9 180 0.0 3.2 0.00 0.18 0.00 95 1011.4
20260509050059 9 116 0.0 0.0 0.00 0.18 0.00 94 1011.6
20260509044556 9 257 0.0 1.6 0.00 0.18 0.00 94 1011.2
20260509043110 9 194 0.0 0.0 0.00 0.18 0.00 94 1011.1
20260509041512 9 194 0.0 1.6 0.00 0.18 0.00 94 1010.8
20260509040016 9 41 0.0 1.6 0.00 0.18 0.00 94 1011.0
20260509034517 9 39 0.0 3.2 0.00 0.20 0.18 94 1011.2
20260509033015 9 269 0.0 1.6 0.00 0.20 0.18 94 1011.4
20260509031520 9 269 0.0 1.6 0.03 0.20 0.18 94 1011.5
20260509030025 9 269 0.0 3.2 0.03 0.20 0.18 94 1011.5
20260509024529 9 334 0.0 1.6 0.03 0.23 0.18 93 1011.4
20260509023052 9 45 0.0 3.2 0.03 0.23 0.18 93 1011.3